Time,TemperatureF,DewpointF,PressureIn,WindDirection,WindDirectionDegrees,WindSpeedMPH,WindSpeedGustMPH,Humidity,HourlyPrecipIn,Conditions,Clouds,dailyrainin,SoftwareType,DateUTC
2013-07-27 00:01:00,61.0,46.0,30.09,NNW,337,2.0,5.0,58,0.00,,,0.00,Rainwise IP-100,2013-07-27 04:01:00,
2013-07-27 00:06:00,61.0,50.0,30.10,NW,315,6.0,6.0,69,0.00,,,0.00,Rainwise IP-100,2013-07-27 04:06:00,
2013-07-27 00:11:00,61.0,50.0,30.10,WNW,292,4.0,4.0,69,0.00,,,0.00,Rainwise IP-100,2013-07-27 04:11:00,
2013-07-27 00:16:00,60.0,50.0,30.10,WNW,292,6.0,9.0,69,0.00,,,0.00,Rainwise IP-100,2013-07-27 04:16:00,
2013-07-27 00:21:00,61.0,47.0,30.10,NW,315,3.0,0.0,60,0.00,,,0.00,Rainwise IP-100,2013-07-27 04:21:00,
2013-07-27 00:26:00,60.0,46.0,30.10,NNW,337,4.0,9.0,60,0.00,,,0.00,Rainwise IP-100,2013-07-27 04:26:00,
2013-07-27 00:31:00,60.0,46.0,30.10,NW,315,5.0,5.0,60,0.00,,,0.00,Rainwise IP-100,2013-07-27 04:31:00,
2013-07-27 00:36:00,60.0,46.0,30.10,NW,315,7.0,9.0,60,0.00,,,0.00,Rainwise IP-100,2013-07-27 04:36:00,
2013-07-27 00:41:00,60.0,46.0,30.10,WNW,292,1.0,9.0,60,0.00,,,0.00,Rainwise IP-100,2013-07-27 04:41:00,
2013-07-27 00:46:00,60.0,46.0,30.10,NW,315,0.0,8.0,60,0.00,,,0.00,Rainwise IP-100,2013-07-27 04:46:00,
2013-07-27 00:51:00,60.0,46.0,30.10,WNW,292,2.0,9.0,60,0.00,,,0.00,Rainwise IP-100,2013-07-27 04:51:00,
2013-07-27 00:56:00,60.0,46.0,30.10,NW,315,6.0,6.0,59,0.00,,,0.00,Rainwise IP-100,2013-07-27 04:56:00,
2013-07-27 01:01:00,60.0,46.0,30.10,WNW,292,6.0,8.0,59,0.00,,,0.00,Rainwise IP-100,2013-07-27 05:01:00,
2013-07-27 01:06:00,60.0,46.0,30.10,WNW,292,2.0,2.0,59,0.00,,,0.00,Rainwise IP-100,2013-07-27 05:06:00,
2013-07-27 01:11:00,60.0,46.0,30.10,NNW,337,7.0,0.0,59,0.00,,,0.00,Rainwise IP-100,2013-07-27 05:11:00,
2013-07-27 01:16:00,60.0,46.0,30.10,NW,315,5.0,0.0,59,0.00,,,0.00,Rainwise IP-100,2013-07-27 05:16:00,
2013-07-27 01:21:00,60.0,46.0,30.10,WNW,292,2.0,0.0,59,0.00,,,0.00,Rainwise IP-100,2013-07-27 05:21:00,
2013-07-27 01:26:00,60.0,46.0,30.10,NNW,337,4.0,8.0,59,0.00,,,0.00,Rainwise IP-100,2013-07-27 05:26:00,
2013-07-27 01:31:00,60.0,46.0,30.10,NW,315,2.0,7.0,59,0.00,,,0.00,Rainwise IP-100,2013-07-27 05:31:00,
2013-07-27 01:36:00,60.0,46.0,30.09,NW,315,7.0,9.0,59,0.00,,,0.00,Rainwise IP-100,2013-07-27 05:36:00,
2013-07-27 01:41:00,60.0,46.0,30.09,NW,315,6.0,6.0,59,0.00,,,0.00,Rainwise IP-100,2013-07-27 05:41:00,
2013-07-27 01:46:00,60.0,46.0,30.10,NNW,337,0.0,9.0,59,0.00,,,0.00,Rainwise IP-100,2013-07-27 05:46:00,
2013-07-27 01:51:00,60.0,46.0,30.10,NNW,337,5.0,8.0,59,0.00,,,0.00,Rainwise IP-100,2013-07-27 05:51:00,
2013-07-27 01:56:00,60.0,46.0,30.10,NW,315,3.0,8.0,59,0.00,,,0.00,Rainwise IP-100,2013-07-27 05:56:00,
2013-07-27 02:01:00,60.0,46.0,30.10,WNW,292,0.0,8.0,59,0.00,,,0.00,Rainwise IP-100,2013-07-27 06:01:00,
2013-07-27 02:06:00,60.0,46.0,30.10,WNW,292,8.0,8.0,59,0.00,,,0.00,Rainwise IP-100,2013-07-27 06:06:00,
2013-07-27 02:11:00,60.0,46.0,30.10,WNW,292,1.0,0.0,60,0.00,,,0.00,Rainwise IP-100,2013-07-27 06:11:00,
2013-07-27 02:16:00,60.0,46.0,30.10,WNW,292,4.0,9.0,60,0.00,,,0.00,Rainwise IP-100,2013-07-27 06:16:00,
2013-07-27 02:21:00,60.0,46.0,30.10,West,270,4.0,4.0,60,0.00,,,0.00,Rainwise IP-100,2013-07-27 06:21:00,
2013-07-27 02:26:00,60.0,46.0,30.10,NW,315,5.0,9.0,60,0.00,,,0.00,Rainwise IP-100,2013-07-27 06:26:00,
2013-07-27 02:31:00,60.0,47.0,30.10,WNW,292,3.0,8.0,61,0.00,,,0.00,Rainwise IP-100,2013-07-27 06:31:00,
2013-07-27 02:36:00,59.0,45.0,30.11,WNW,292,2.0,9.0,60,0.00,,,0.00,Rainwise IP-100,2013-07-27 06:36:00,
2013-07-27 02:41:00,59.0,45.0,30.11,WNW,292,4.0,8.0,60,0.00,,,0.00,Rainwise IP-100,2013-07-27 06:41:00,
2013-07-27 02:46:00,59.0,45.0,30.11,NW,315,2.0,8.0,60,0.00,,,0.00,Rainwise IP-100,2013-07-27 06:46:00,
2013-07-27 02:51:00,59.0,45.0,30.11,NW,315,5.0,0.0,60,0.00,,,0.00,Rainwise IP-100,2013-07-27 06:51:00,
2013-07-27 02:56:00,59.0,45.0,30.11,WNW,292,0.0,9.0,60,0.00,,,0.00,Rainwise IP-100,2013-07-27 06:56:00,
2013-07-27 03:01:00,59.0,45.0,30.11,WNW,292,6.0,6.0,60,0.00,,,0.00,Rainwise IP-100,2013-07-27 07:01:00,
2013-07-27 03:06:00,59.0,45.0,30.11,West,270,5.0,0.0,59,0.00,,,0.00,Rainwise IP-100,2013-07-27 07:06:00,
2013-07-27 03:11:00,59.0,45.0,30.11,WNW,292,3.0,3.0,59,0.00,,,0.00,Rainwise IP-100,2013-07-27 07:11:00,
2013-07-27 03:16:00,59.0,45.0,30.12,WNW,292,4.0,7.0,59,0.00,,,0.00,Rainwise IP-100,2013-07-27 07:16:00,
2013-07-27 03:21:00,59.0,45.0,30.12,NW,315,2.0,0.0,59,0.00,,,0.00,Rainwise IP-100,2013-07-27 07:21:00,
2013-07-27 03:26:00,59.0,45.0,30.12,NW,315,1.0,8.0,59,0.00,,,0.00,Rainwise IP-100,2013-07-27 07:26:00,
2013-07-27 03:31:00,59.0,45.0,30.12,WNW,292,1.0,8.0,59,0.00,,,0.00,Rainwise IP-100,2013-07-27 07:31:00,
2013-07-27 03:36:00,59.0,45.0,30.12,WNW,292,7.0,8.0,59,0.00,,,0.00,Rainwise IP-100,2013-07-27 07:36:00,
2013-07-27 03:41:00,59.0,45.0,30.12,NNW,337,4.0,4.0,59,0.00,,,0.00,Rainwise IP-100,2013-07-27 07:41:00,
2013-07-27 03:46:00,59.0,45.0,30.12,WNW,292,0.0,2.0,59,0.00,,,0.00,Rainwise IP-100,2013-07-27 07:46:00,
2013-07-27 03:51:00,59.0,45.0,30.12,WNW,292,1.0,4.0,59,0.00,,,0.00,Rainwise IP-100,2013-07-27 07:51:00,
2013-07-27 03:56:00,59.0,45.0,30.13,WNW,292,6.0,8.0,59,0.00,,,0.00,Rainwise IP-100,2013-07-27 07:56:00,
2013-07-27 04:01:00,59.0,45.0,30.13,NW,315,1.0,9.0,59,0.00,,,0.00,Rainwise IP-100,2013-07-27 08:01:00,
2013-07-27 04:06:00,59.0,44.0,30.13,WNW,292,1.0,6.0,58,0.00,,,0.00,Rainwise IP-100,2013-07-27 08:06:00,
2013-07-27 04:11:00,59.0,44.0,30.13,WNW,292,1.0,5.0,58,0.00,,,0.00,Rainwise IP-100,2013-07-27 08:11:00,
2013-07-27 04:16:00,59.0,44.0,30.14,NNW,337,0.0,8.0,58,0.00,,,0.00,Rainwise IP-100,2013-07-27 08:16:00,
2013-07-27 04:21:00,59.0,44.0,30.14,WNW,292,3.0,8.0,58,0.00,,,0.00,Rainwise IP-100,2013-07-27 08:21:00,
2013-07-27 04:26:00,59.0,44.0,30.14,WNW,292,0.0,6.0,58,0.00,,,0.00,Rainwise IP-100,2013-07-27 08:26:00,
2013-07-27 04:31:00,59.0,44.0,30.15,WNW,292,7.0,7.0,58,0.00,,,0.00,Rainwise IP-100,2013-07-27 08:31:00,
2013-07-27 04:36:00,59.0,44.0,30.15,WNW,292,2.0,7.0,57,0.00,,,0.00,Rainwise IP-100,2013-07-27 08:36:00,
2013-07-27 04:41:00,59.0,44.0,30.15,WNW,292,0.0,7.0,57,0.00,,,0.00,Rainwise IP-100,2013-07-27 08:41:00,
2013-07-27 04:46:00,59.0,44.0,30.15,WNW,292,4.0,7.0,57,0.00,,,0.00,Rainwise IP-100,2013-07-27 08:46:00,
2013-07-27 04:51:00,59.0,44.0,30.15,WNW,292,2.0,7.0,57,0.00,,,0.00,Rainwise IP-100,2013-07-27 08:51:00,
2013-07-27 04:56:00,59.0,43.0,30.15,NW,315,0.0,6.0,56,0.00,,,0.00,Rainwise IP-100,2013-07-27 08:56:00,
2013-07-27 05:01:00,59.0,43.0,30.15,SW,225,0.0,0.0,56,0.00,,,0.00,Rainwise IP-100,2013-07-27 09:01:00,
2013-07-27 05:06:00,59.0,43.0,30.15,NW,315,3.0,6.0,56,0.00,,,0.00,Rainwise IP-100,2013-07-27 09:06:00,
2013-07-27 05:11:00,59.0,43.0,30.15,West,270,0.0,6.0,56,0.00,,,0.00,Rainwise IP-100,2013-07-27 09:11:00,
2013-07-27 05:16:00,59.0,43.0,30.15,WNW,292,0.0,4.0,56,0.00,,,0.00,Rainwise IP-100,2013-07-27 09:16:00,
2013-07-27 05:21:00,59.0,43.0,30.16,WSW,247,0.0,6.0,56,0.00,,,0.00,Rainwise IP-100,2013-07-27 09:21:00,
2013-07-27 05:26:00,59.0,43.0,30.17,WNW,292,0.0,0.0,56,0.00,,,0.00,Rainwise IP-100,2013-07-27 09:26:00,
2013-07-27 05:31:00,59.0,43.0,30.17,West,270,0.0,4.0,56,0.00,,,0.00,Rainwise IP-100,2013-07-27 09:31:00,
2013-07-27 05:36:00,59.0,43.0,30.17,WNW,292,0.0,4.0,56,0.00,,,0.00,Rainwise IP-100,2013-07-27 09:36:00,
2013-07-27 05:41:00,59.0,43.0,30.17,WNW,292,0.0,2.0,56,0.00,,,0.00,Rainwise IP-100,2013-07-27 09:41:00,
2013-07-27 05:46:00,59.0,43.0,30.17,WNW,292,4.0,5.0,56,0.00,,,0.00,Rainwise IP-100,2013-07-27 09:46:00,
2013-07-27 05:51:00,59.0,43.0,30.17,WNW,292,0.0,7.0,56,0.00,,,0.00,Rainwise IP-100,2013-07-27 09:51:00,
2013-07-27 05:56:00,60.0,45.0,30.17,WNW,292,0.0,5.0,57,0.00,,,0.00,Rainwise IP-100,2013-07-27 09:56:00,
2013-07-27 06:01:00,60.0,45.0,30.18,WNW,292,0.0,0.0,57,0.00,,,0.00,Rainwise IP-100,2013-07-27 10:01:00,
2013-07-27 06:06:00,60.0,45.0,30.18,West,270,0.0,0.0,57,0.00,,,0.00,Rainwise IP-100,2013-07-27 10:06:00,
2013-07-27 06:11:00,60.0,45.0,30.18,WSW,247,0.0,5.0,57,0.00,,,0.00,Rainwise IP-100,2013-07-27 10:11:00,
2013-07-27 06:16:00,60.0,45.0,30.18,WNW,292,0.0,3.0,57,0.00,,,0.00,Rainwise IP-100,2013-07-27 10:16:00,
2013-07-27 06:21:00,60.0,45.0,30.18,WSW,247,0.0,6.0,57,0.00,,,0.00,Rainwise IP-100,2013-07-27 10:21:00,
2013-07-27 06:26:00,60.0,45.0,30.18,WSW,247,0.0,5.0,57,0.00,,,0.00,Rainwise IP-100,2013-07-27 10:26:00,
2013-07-27 06:31:00,60.0,45.0,30.19,WSW,247,0.0,5.0,57,0.00,,,0.00,Rainwise IP-100,2013-07-27 10:31:00,
2013-07-27 06:36:00,60.0,45.0,30.19,WSW,247,4.0,6.0,57,0.00,,,0.00,Rainwise IP-100,2013-07-27 10:36:00,
2013-07-27 06:41:00,60.0,44.0,30.19,WSW,247,0.0,6.0,56,0.00,,,0.00,Rainwise IP-100,2013-07-27 10:41:00,
2013-07-27 06:46:00,60.0,44.0,30.19,WNW,292,0.0,5.0,56,0.00,,,0.00,Rainwise IP-100,2013-07-27 10:46:00,
2013-07-27 06:51:00,60.0,44.0,30.19,SW,225,0.0,6.0,56,0.00,,,0.00,Rainwise IP-100,2013-07-27 10:51:00,
2013-07-27 06:56:00,60.0,44.0,30.19,WSW,247,1.0,7.0,56,0.00,,,0.00,Rainwise IP-100,2013-07-27 10:56:00,
2013-07-27 07:01:00,61.0,45.0,30.20,WSW,247,0.0,6.0,56,0.06,,,0.01,Rainwise IP-100,2013-07-27 11:01:00,
2013-07-27 07:06:00,61.0,45.0,30.20,NW,315,0.0,6.0,56,0.06,,,0.01,Rainwise IP-100,2013-07-27 11:06:00,
2013-07-27 07:11:00,61.0,45.0,30.20,WNW,292,1.0,6.0,56,0.00,,,0.01,Rainwise IP-100,2013-07-27 11:11:00,
2013-07-27 07:16:00,61.0,45.0,30.20,West,270,0.0,9.0,56,0.00,,,0.01,Rainwise IP-100,2013-07-27 11:16:00,
2013-07-27 07:21:00,61.0,46.0,30.21,WSW,247,0.0,3.0,57,0.00,,,0.01,Rainwise IP-100,2013-07-27 11:21:00,
2013-07-27 07:26:00,61.0,45.0,30.21,SSW,202,7.0,7.0,56,0.00,,,0.01,Rainwise IP-100,2013-07-27 11:26:00,
2013-07-27 07:31:00,61.0,46.0,30.21,SW,225,0.0,9.0,57,0.00,,,0.01,Rainwise IP-100,2013-07-27 11:31:00,
2013-07-27 07:36:00,61.0,45.0,30.21,South,180,0.0,6.0,56,0.00,,,0.01,Rainwise IP-100,2013-07-27 11:36:00,
2013-07-27 07:41:00,61.0,46.0,30.21,West,270,0.0,7.0,57,0.00,,,0.01,Rainwise IP-100,2013-07-27 11:41:00,
2013-07-27 07:46:00,61.0,46.0,30.21,WNW,292,0.0,4.0,57,0.00,,,0.01,Rainwise IP-100,2013-07-27 11:46:00,
2013-07-27 07:51:00,62.0,46.0,30.21,SW,225,0.0,5.0,56,0.00,,,0.01,Rainwise IP-100,2013-07-27 11:51:00,
2013-07-27 07:56:00,62.0,47.0,30.22,WNW,292,1.0,7.0,57,0.00,,,0.01,Rainwise IP-100,2013-07-27 11:56:00,
2013-07-27 08:01:00,62.0,47.0,30.21,WNW,292,2.0,6.0,57,0.00,,,0.01,Rainwise IP-100,2013-07-27 12:01:00,
2013-07-27 08:06:00,62.0,47.0,30.21,WNW,292,6.0,0.0,57,0.00,,,0.01,Rainwise IP-100,2013-07-27 12:06:00,
2013-07-27 08:11:00,63.0,48.0,30.22,SW,225,0.0,9.0,58,0.00,,,0.01,Rainwise IP-100,2013-07-27 12:11:00,
2013-07-27 08:16:00,63.0,48.0,30.22,West,270,1.0,7.0,58,0.00,,,0.01,Rainwise IP-100,2013-07-27 12:16:00,
2013-07-27 08:21:00,65.0,49.0,30.22,WSW,247,1.0,8.0,57,0.00,,,0.01,Rainwise IP-100,2013-07-27 12:21:00,
2013-07-27 08:26:00,65.0,49.0,30.22,WNW,292,3.0,9.0,57,0.00,,,0.01,Rainwise IP-100,2013-07-27 12:26:00,
2013-07-27 08:31:00,67.0,50.0,30.22,WNW,292,5.0,7.0,55,0.00,,,0.01,Rainwise IP-100,2013-07-27 12:31:00,
2013-07-27 08:36:00,67.0,51.0,30.22,West,270,2.0,8.0,57,0.00,,,0.01,Rainwise IP-100,2013-07-27 12:36:00,
2013-07-27 08:41:00,66.0,52.0,30.23,WNW,292,1.0,7.0,61,0.00,,,0.01,Rainwise IP-100,2013-07-27 12:41:00,
2013-07-27 08:46:00,67.0,55.0,30.23,West,270,1.0,0.0,66,0.00,,,0.01,Rainwise IP-100,2013-07-27 12:46:00,
2013-07-27 08:51:00,68.0,59.0,30.23,WNW,292,0.0,7.0,72,0.00,,,0.01,Rainwise IP-100,2013-07-27 12:51:00,
2013-07-27 08:56:00,68.0,59.0,30.23,WNW,292,2.0,9.0,74,0.00,,,0.01,Rainwise IP-100,2013-07-27 12:56:00,
2013-07-27 09:01:00,68.0,60.0,30.23,WNW,292,3.0,3.0,75,0.00,,,0.01,Rainwise IP-100,2013-07-27 13:01:00,
2013-07-27 09:06:00,68.0,60.0,30.23,WNW,292,5.0,5.0,75,0.00,,,0.01,Rainwise IP-100,2013-07-27 13:06:00,
2013-07-27 09:11:00,68.0,60.0,30.23,WNW,292,3.0,0.0,75,0.00,,,0.01,Rainwise IP-100,2013-07-27 13:11:00,
2013-07-27 09:16:00,69.0,61.0,30.24,WNW,292,2.0,9.0,76,0.00,,,0.01,Rainwise IP-100,2013-07-27 13:16:00,
2013-07-27 09:21:00,69.0,61.0,30.24,NNW,337,0.0,4.0,76,0.00,,,0.01,Rainwise IP-100,2013-07-27 13:21:00,
2013-07-27 09:26:00,68.0,60.0,30.24,NW,315,0.0,6.0,76,0.00,,,0.01,Rainwise IP-100,2013-07-27 13:26:00,
2013-07-27 09:31:00,68.0,60.0,30.24,WNW,292,2.0,2.0,76,0.00,,,0.01,Rainwise IP-100,2013-07-27 13:31:00,
2013-07-27 09:36:00,68.0,60.0,30.25,WNW,292,7.0,7.0,76,0.00,,,0.01,Rainwise IP-100,2013-07-27 13:36:00,
2013-07-27 09:41:00,68.0,60.0,30.25,WNW,292,3.0,3.0,76,0.00,,,0.01,Rainwise IP-100,2013-07-27 13:41:00,
2013-07-27 09:46:00,68.0,60.0,30.25,NNW,337,0.0,6.0,76,0.00,,,0.01,Rainwise IP-100,2013-07-27 13:46:00,
2013-07-27 09:51:00,69.0,61.0,30.25,NW,315,6.0,6.0,76,0.00,,,0.01,Rainwise IP-100,2013-07-27 13:51:00,
2013-07-27 09:56:00,68.0,60.0,30.25,WNW,292,3.0,0.0,76,0.00,,,0.01,Rainwise IP-100,2013-07-27 13:56:00,
2013-07-27 10:01:00,69.0,61.0,30.25,WSW,247,0.0,8.0,76,0.00,,,0.01,Rainwise IP-100,2013-07-27 14:01:00,
2013-07-27 10:06:00,69.0,61.0,30.25,NW,315,7.0,9.0,76,0.00,,,0.01,Rainwise IP-100,2013-07-27 14:06:00,
2013-07-27 10:11:00,68.0,60.0,30.26,NNW,337,5.0,5.0,76,0.00,,,0.01,Rainwise IP-100,2013-07-27 14:11:00,
2013-07-27 10:16:00,68.0,60.0,30.26,NW,315,0.0,7.0,76,0.00,,,0.01,Rainwise IP-100,2013-07-27 14:16:00,
2013-07-27 10:21:00,68.0,60.0,30.26,WNW,292,4.0,7.0,76,0.00,,,0.01,Rainwise IP-100,2013-07-27 14:21:00,
2013-07-27 10:26:00,68.0,60.0,30.26,NW,315,3.0,3.0,76,0.00,,,0.01,Rainwise IP-100,2013-07-27 14:26:00,
2013-07-27 10:31:00,68.0,60.0,30.26,NW,315,6.0,6.0,76,0.00,,,0.01,Rainwise IP-100,2013-07-27 14:31:00,
2013-07-27 10:36:00,68.0,60.0,30.26,West,270,3.0,4.0,76,0.00,,,0.01,Rainwise IP-100,2013-07-27 14:36:00,
2013-07-27 10:41:00,68.0,60.0,30.26,NNW,337,7.0,0.0,76,0.00,,,0.01,Rainwise IP-100,2013-07-27 14:41:00,
2013-07-27 10:46:00,69.0,61.0,30.26,WNW,292,9.0,9.0,76,0.00,,,0.01,Rainwise IP-100,2013-07-27 14:46:00,
2013-07-27 10:51:00,69.0,61.0,30.26,WNW,292,9.0,9.0,76,0.00,,,0.01,Rainwise IP-100,2013-07-27 14:51:00,
2013-07-27 10:56:00,68.0,60.0,30.26,WNW,292,4.0,4.0,76,0.00,,,0.01,Rainwise IP-100,2013-07-27 14:56:00,
2013-07-27 11:01:00,69.0,61.0,30.26,WNW,292,5.0,9.0,76,0.00,,,0.01,Rainwise IP-100,2013-07-27 15:01:00,
2013-07-27 11:06:00,69.0,61.0,30.26,NW,315,2.0,8.0,76,0.00,,,0.01,Rainwise IP-100,2013-07-27 15:06:00,
2013-07-27 11:11:00,69.0,61.0,30.27,WNW,292,3.0,9.0,76,0.00,,,0.01,Rainwise IP-100,2013-07-27 15:11:00,
2013-07-27 11:16:00,69.0,61.0,30.27,WNW,292,5.0,9.0,76,0.00,,,0.01,Rainwise IP-100,2013-07-27 15:16:00,
2013-07-27 11:21:00,69.0,61.0,30.27,West,270,5.0,8.0,76,0.00,,,0.01,Rainwise IP-100,2013-07-27 15:21:00,
2013-07-27 11:26:00,69.0,61.0,30.27,WNW,292,2.0,9.0,76,0.00,,,0.01,Rainwise IP-100,2013-07-27 15:26:00,
2013-07-27 11:31:00,69.0,61.0,30.27,WNW,292,3.0,9.0,76,0.00,,,0.01,Rainwise IP-100,2013-07-27 15:31:00,
2013-07-27 11:36:00,69.0,61.0,30.27,West,270,0.0,9.0,76,0.00,,,0.01,Rainwise IP-100,2013-07-27 15:36:00,
2013-07-27 11:41:00,70.0,62.0,30.27,WNW,292,8.0,0.0,77,0.00,,,0.01,Rainwise IP-100,2013-07-27 15:41:00,
2013-07-27 11:46:00,70.0,62.0,30.27,WNW,292,0.0,9.0,76,0.00,,,0.01,Rainwise IP-100,2013-07-27 15:46:00,
2013-07-27 11:51:00,71.0,63.0,30.28,WNW,292,4.0,8.0,77,0.00,,,0.01,Rainwise IP-100,2013-07-27 15:51:00,
2013-07-27 11:56:00,71.0,63.0,30.27,WNW,292,8.0,0.0,77,0.00,,,0.01,Rainwise IP-100,2013-07-27 15:56:00,
2013-07-27 12:01:00,71.0,63.0,30.27,WNW,292,5.0,5.0,77,0.00,,,0.01,Rainwise IP-100,2013-07-27 16:01:00,
2013-07-27 12:06:00,72.0,64.0,30.27,WNW,292,3.0,0.0,77,0.00,,,0.01,Rainwise IP-100,2013-07-27 16:06:00,
2013-07-27 12:11:00,72.0,64.0,30.27,WNW,292,1.0,2.0,77,0.00,,,0.01,Rainwise IP-100,2013-07-27 16:11:00,
2013-07-27 12:16:00,72.0,64.0,30.27,WNW,292,1.0,8.0,77,0.00,,,0.01,Rainwise IP-100,2013-07-27 16:16:00,
2013-07-27 12:21:00,72.0,64.0,30.27,WNW,292,0.0,3.0,77,0.00,,,0.01,Rainwise IP-100,2013-07-27 16:21:00,
2013-07-27 12:26:00,72.0,64.0,30.27,NW,315,6.0,6.0,77,0.00,,,0.01,Rainwise IP-100,2013-07-27 16:26:00,
2013-07-27 12:31:00,72.0,64.0,30.27,WNW,292,0.0,9.0,77,0.00,,,0.01,Rainwise IP-100,2013-07-27 16:31:00,
2013-07-27 12:36:00,73.0,65.0,30.27,WNW,292,6.0,6.0,77,0.00,,,0.01,Rainwise IP-100,2013-07-27 16:36:00,
2013-07-27 12:41:00,73.0,65.0,30.27,NW,315,3.0,3.0,77,0.00,,,0.01,Rainwise IP-100,2013-07-27 16:41:00,
2013-07-27 12:46:00,73.0,65.0,30.27,WNW,292,5.0,9.0,77,0.00,,,0.01,Rainwise IP-100,2013-07-27 16:46:00,
2013-07-27 12:51:00,73.0,65.0,30.27,WNW,292,7.0,0.0,77,0.00,,,0.01,Rainwise IP-100,2013-07-27 16:51:00,
2013-07-27 12:56:00,74.0,66.0,30.27,NW,315,0.0,9.0,77,0.00,,,0.01,Rainwise IP-100,2013-07-27 16:56:00,
2013-07-27 13:01:00,74.0,66.0,30.27,SSW,202,0.0,0.0,77,0.00,,,0.01,Rainwise IP-100,2013-07-27 17:01:00,
2013-07-27 13:06:00,74.0,66.0,30.27,WNW,292,0.0,7.0,77,0.00,,,0.01,Rainwise IP-100,2013-07-27 17:06:00,
2013-07-27 13:11:00,74.0,66.0,30.27,NNW,337,6.0,0.0,77,0.00,,,0.01,Rainwise IP-100,2013-07-27 17:11:00,
2013-07-27 13:16:00,74.0,66.0,30.27,NNW,337,1.0,7.0,77,0.00,,,0.01,Rainwise IP-100,2013-07-27 17:16:00,
2013-07-27 13:21:00,74.0,66.0,30.27,SW,225,2.0,5.0,76,0.00,,,0.01,Rainwise IP-100,2013-07-27 17:21:00,
2013-07-27 13:26:00,75.0,67.0,30.27,WSW,247,0.0,0.0,77,0.00,,,0.01,Rainwise IP-100,2013-07-27 17:26:00,
2013-07-27 13:31:00,75.0,67.0,30.27,West,270,3.0,7.0,77,0.00,,,0.01,Rainwise IP-100,2013-07-27 17:31:00,
2013-07-27 13:36:00,76.0,68.0,30.27,West,270,3.0,0.0,77,0.00,,,0.01,Rainwise IP-100,2013-07-27 17:36:00,
2013-07-27 13:41:00,76.0,68.0,30.28,WSW,247,0.0,0.0,78,0.00,,,0.01,Rainwise IP-100,2013-07-27 17:41:00,
2013-07-27 13:46:00,77.0,69.0,30.28,WSW,247,0.0,6.0,77,0.00,,,0.01,Rainwise IP-100,2013-07-27 17:46:00,
2013-07-27 13:51:00,77.0,69.0,30.28,NNE,22,0.0,6.0,77,0.00,,,0.01,Rainwise IP-100,2013-07-27 17:51:00,
2013-07-27 13:56:00,77.0,69.0,30.28,NW,315,0.0,7.0,77,0.00,,,0.01,Rainwise IP-100,2013-07-27 17:56:00,
2013-07-27 14:01:00,77.0,69.0,30.28,WNW,292,0.0,7.0,77,0.00,,,0.01,Rainwise IP-100,2013-07-27 18:01:00,
2013-07-27 14:06:00,78.0,71.0,30.28,West,270,0.0,7.0,78,0.00,,,0.01,Rainwise IP-100,2013-07-27 18:06:00,
2013-07-27 14:11:00,77.0,69.0,30.28,NW,315,0.0,7.0,77,0.00,,,0.01,Rainwise IP-100,2013-07-27 18:11:00,
2013-07-27 14:16:00,78.0,70.0,30.28,NNW,337,0.0,4.0,77,0.00,,,0.01,Rainwise IP-100,2013-07-27 18:16:00,
2013-07-27 14:21:00,78.0,70.0,30.28,WNW,292,0.0,8.0,77,0.00,,,0.01,Rainwise IP-100,2013-07-27 18:21:00,
2013-07-27 14:26:00,78.0,70.0,30.28,WNW,292,0.0,8.0,77,0.00,,,0.01,Rainwise IP-100,2013-07-27 18:26:00,
2013-07-27 14:31:00,78.0,70.0,30.29,West,270,0.0,0.0,77,0.00,,,0.01,Rainwise IP-100,2013-07-27 18:31:00,
2013-07-27 14:36:00,77.0,69.0,30.29,WNW,292,0.0,0.0,77,0.00,,,0.01,Rainwise IP-100,2013-07-27 18:36:00,
2013-07-27 14:41:00,78.0,70.0,30.29,South,180,0.0,9.0,77,0.00,,,0.01,Rainwise IP-100,2013-07-27 18:41:00,
2013-07-27 14:46:00,78.0,70.0,30.29,SSW,202,1.0,7.0,77,0.00,,,0.01,Rainwise IP-100,2013-07-27 18:46:00,
2013-07-27 14:51:00,79.0,71.0,30.29,SE,135,0.0,7.0,77,0.00,,,0.01,Rainwise IP-100,2013-07-27 18:51:00,
2013-07-27 14:56:00,79.0,71.0,30.29,South,180,0.0,6.0,77,0.00,,,0.01,Rainwise IP-100,2013-07-27 18:56:00,
2013-07-27 15:01:00,80.0,72.0,30.29,NNE,22,0.0,6.0,77,0.00,,,0.01,Rainwise IP-100,2013-07-27 19:01:00,
2013-07-27 15:06:00,80.0,72.0,30.29,South,180,0.0,4.0,77,0.00,,,0.01,Rainwise IP-100,2013-07-27 19:06:00,
2013-07-27 15:11:00,80.0,72.0,30.29,NW,315,0.0,7.0,77,0.00,,,0.01,Rainwise IP-100,2013-07-27 19:11:00,
2013-07-27 15:16:00,79.0,71.0,30.29,WNW,292,3.0,9.0,78,0.00,,,0.01,Rainwise IP-100,2013-07-27 19:16:00,
2013-07-27 15:21:00,79.0,71.0,30.30,West,270,1.0,0.0,77,0.00,,,0.01,Rainwise IP-100,2013-07-27 19:21:00,
2013-07-27 15:26:00,79.0,71.0,30.30,SW,225,0.0,9.0,78,0.00,,,0.01,Rainwise IP-100,2013-07-27 19:26:00,
2013-07-27 15:31:00,79.0,71.0,30.30,East,90,0.0,8.0,77,0.00,,,0.01,Rainwise IP-100,2013-07-27 19:31:00,
2013-07-27 15:36:00,78.0,70.0,30.29,North,360,0.0,7.0,77,0.00,,,0.01,Rainwise IP-100,2013-07-27 19:36:00,
2013-07-27 15:41:00,79.0,71.0,30.29,WNW,292,7.0,7.0,77,0.00,,,0.01,Rainwise IP-100,2013-07-27 19:41:00,
2013-07-27 15:46:00,79.0,71.0,30.29,SW,225,0.0,8.0,77,0.00,,,0.01,Rainwise IP-100,2013-07-27 19:46:00,
2013-07-27 15:51:00,80.0,72.0,30.29,ESE,112,0.0,4.0,78,0.00,,,0.01,Rainwise IP-100,2013-07-27 19:51:00,
2013-07-27 15:56:00,79.0,71.0,30.29,NW,315,0.0,7.0,78,0.00,,,0.01,Rainwise IP-100,2013-07-27 19:56:00,
2013-07-27 16:01:00,79.0,71.0,30.30,NE,45,0.0,6.0,77,0.00,,,0.01,Rainwise IP-100,2013-07-27 20:01:00,
2013-07-27 16:06:00,79.0,71.0,30.30,SSW,202,0.0,9.0,77,0.00,,,0.01,Rainwise IP-100,2013-07-27 20:06:00,
2013-07-27 16:11:00,80.0,72.0,30.30,NNE,22,0.0,1.0,78,0.00,,,0.01,Rainwise IP-100,2013-07-27 20:11:00,
2013-07-27 16:16:00,80.0,72.0,30.29,West,270,3.0,3.0,78,0.00,,,0.01,Rainwise IP-100,2013-07-27 20:16:00,
2013-07-27 16:21:00,80.0,72.0,30.29,SSE,157,0.0,7.0,77,0.00,,,0.01,Rainwise IP-100,2013-07-27 20:21:00,
2013-07-27 16:26:00,81.0,73.0,30.29,WSW,247,1.0,7.0,78,0.00,,,0.01,Rainwise IP-100,2013-07-27 20:26:00,
2013-07-27 16:31:00,80.0,72.0,30.30,SE,135,0.0,8.0,78,0.00,,,0.01,Rainwise IP-100,2013-07-27 20:31:00,
2013-07-27 16:36:00,79.0,71.0,30.30,ENE,67,0.0,7.0,78,0.00,,,0.01,Rainwise IP-100,2013-07-27 20:36:00,
2013-07-27 16:41:00,79.0,71.0,30.30,NE,45,0.0,7.0,78,0.00,,,0.01,Rainwise IP-100,2013-07-27 20:41:00,
2013-07-27 16:46:00,78.0,71.0,30.30,SSE,157,7.0,7.0,78,0.00,,,0.01,Rainwise IP-100,2013-07-27 20:46:00,
2013-07-27 16:51:00,78.0,71.0,30.30,NE,45,2.0,0.0,78,0.00,,,0.01,Rainwise IP-100,2013-07-27 20:51:00,
2013-07-27 16:56:00,77.0,69.0,30.30,SSE,157,7.0,7.0,77,0.00,,,0.01,Rainwise IP-100,2013-07-27 20:56:00,
2013-07-27 17:01:00,76.0,68.0,30.29,SE,135,3.0,7.0,77,0.00,,,0.01,Rainwise IP-100,2013-07-27 21:01:00,
2013-07-27 17:06:00,77.0,69.0,30.29,SW,225,0.0,5.0,77,0.00,,,0.01,Rainwise IP-100,2013-07-27 21:06:00,
2013-07-27 17:11:00,76.0,68.0,30.29,SE,135,0.0,2.0,77,0.00,,,0.01,Rainwise IP-100,2013-07-27 21:11:00,
2013-07-27 17:16:00,76.0,68.0,30.29,WSW,247,0.0,0.0,77,0.00,,,0.01,Rainwise IP-100,2013-07-27 21:16:00,
2013-07-27 17:21:00,75.0,67.0,30.29,SE,135,6.0,7.0,77,0.00,,,0.01,Rainwise IP-100,2013-07-27 21:21:00,
2013-07-27 17:26:00,74.0,66.0,30.29,South,180,0.0,0.0,76,0.00,,,0.01,Rainwise IP-100,2013-07-27 21:26:00,
2013-07-27 17:31:00,74.0,66.0,30.29,NNW,337,0.0,3.0,76,0.00,,,0.01,Rainwise IP-100,2013-07-27 21:31:00,
2013-07-27 17:36:00,74.0,66.0,30.29,West,270,0.0,4.0,76,0.00,,,0.01,Rainwise IP-100,2013-07-27 21:36:00,
2013-07-27 17:41:00,74.0,66.0,30.29,West,270,0.0,6.0,76,0.00,,,0.01,Rainwise IP-100,2013-07-27 21:41:00,
2013-07-27 17:46:00,73.0,65.0,30.29,SSW,202,0.0,6.0,76,0.00,,,0.01,Rainwise IP-100,2013-07-27 21:46:00,
2013-07-27 17:51:00,73.0,65.0,30.29,SE,135,0.0,6.0,76,0.00,,,0.01,Rainwise IP-100,2013-07-27 21:51:00,
2013-07-27 17:56:00,73.0,65.0,30.29,WNW,292,0.0,5.0,76,0.00,,,0.01,Rainwise IP-100,2013-07-27 21:56:00,
2013-07-27 18:01:00,73.0,65.0,30.29,SW,225,0.0,7.0,76,0.00,,,0.01,Rainwise IP-100,2013-07-27 22:01:00,
2013-07-27 18:06:00,72.0,64.0,30.29,ESE,112,0.0,5.0,76,0.00,,,0.01,Rainwise IP-100,2013-07-27 22:06:00,
2013-07-27 18:11:00,72.0,64.0,30.29,WSW,247,0.0,3.0,76,0.00,,,0.01,Rainwise IP-100,2013-07-27 22:11:00,
2013-07-27 18:16:00,72.0,64.0,30.29,NNE,22,0.0,6.0,76,0.00,,,0.01,Rainwise IP-100,2013-07-27 22:16:00,
2013-07-27 18:21:00,71.0,63.0,30.29,SSE,157,0.0,6.0,76,0.00,,,0.01,Rainwise IP-100,2013-07-27 22:21:00,
2013-07-27 18:26:00,71.0,63.0,30.29,ENE,67,2.0,5.0,76,0.00,,,0.01,Rainwise IP-100,2013-07-27 22:26:00,
2013-07-27 18:31:00,71.0,63.0,30.29,SW,225,5.0,5.0,76,0.00,,,0.01,Rainwise IP-100,2013-07-27 22:31:00,
2013-07-27 18:36:00,71.0,63.0,30.29,North,360,0.0,5.0,76,0.00,,,0.01,Rainwise IP-100,2013-07-27 22:36:00,
2013-07-27 18:41:00,71.0,63.0,30.29,SSW,202,0.0,3.0,76,0.00,,,0.01,Rainwise IP-100,2013-07-27 22:41:00,
2013-07-27 18:46:00,70.0,62.0,30.29,West,270,0.0,0.0,76,0.00,,,0.01,Rainwise IP-100,2013-07-27 22:46:00,
2013-07-27 18:51:00,70.0,62.0,30.29,NNW,337,0.0,4.0,76,0.00,,,0.01,Rainwise IP-100,2013-07-27 22:51:00,
2013-07-27 18:56:00,70.0,62.0,30.29,NNW,337,0.0,0.0,76,0.00,,,0.01,Rainwise IP-100,2013-07-27 22:56:00,
2013-07-27 19:01:00,71.0,63.0,30.29,SSW,202,0.0,2.0,76,0.00,,,0.01,Rainwise IP-100,2013-07-27 23:01:00,
2013-07-27 19:06:00,71.0,63.0,30.29,South,180,0.0,2.0,76,0.00,,,0.01,Rainwise IP-100,2013-07-27 23:06:00,
2013-07-27 19:11:00,71.0,63.0,30.29,NNW,337,0.0,1.0,76,0.00,,,0.01,Rainwise IP-100,2013-07-27 23:11:00,
2013-07-27 19:16:00,71.0,63.0,30.29,NNW,337,0.0,0.0,76,0.00,,,0.01,Rainwise IP-100,2013-07-27 23:16:00,
2013-07-27 19:21:00,70.0,62.0,30.29,West,270,0.0,6.0,76,0.00,,,0.01,Rainwise IP-100,2013-07-27 23:21:00,
2013-07-27 19:26:00,70.0,62.0,30.29,WSW,247,0.0,6.0,76,0.00,,,0.01,Rainwise IP-100,2013-07-27 23:26:00,
2013-07-27 19:31:00,70.0,62.0,30.29,East,90,0.0,3.0,76,0.00,,,0.01,Rainwise IP-100,2013-07-27 23:31:00,
2013-07-27 19:36:00,69.0,61.0,30.29,West,270,0.0,6.0,76,0.00,,,0.01,Rainwise IP-100,2013-07-27 23:36:00,
2013-07-27 19:41:00,69.0,61.0,30.29,SE,135,0.0,3.0,76,0.00,,,0.01,Rainwise IP-100,2013-07-27 23:41:00,
2013-07-27 19:46:00,68.0,60.0,30.29,ENE,67,2.0,6.0,76,0.00,,,0.01,Rainwise IP-100,2013-07-27 23:46:00,
2013-07-27 19:51:00,67.0,59.0,30.29,NE,45,0.0,5.0,75,0.00,,,0.01,Rainwise IP-100,2013-07-27 23:51:00,
2013-07-27 19:56:00,67.0,59.0,30.29,WNW,292,0.0,4.0,75,0.00,,,0.01,Rainwise IP-100,2013-07-27 23:56:00,
2013-07-27 20:01:00,66.0,57.0,30.29,NW,315,0.0,2.0,75,0.00,,,0.01,Rainwise IP-100,2013-07-28 00:01:00,
2013-07-27 20:06:00,66.0,57.0,30.29,NW,315,0.0,0.0,75,0.00,,,0.01,Rainwise IP-100,2013-07-28 00:06:00,
2013-07-27 20:11:00,65.0,57.0,30.29,NW,315,0.0,0.0,75,0.00,,,0.01,Rainwise IP-100,2013-07-28 00:11:00,
2013-07-27 20:16:00,65.0,57.0,30.29,NW,315,0.0,0.0,75,0.00,,,0.01,Rainwise IP-100,2013-07-28 00:16:00,
2013-07-27 20:21:00,65.0,57.0,30.29,NW,315,0.0,0.0,75,0.00,,,0.01,Rainwise IP-100,2013-07-28 00:21:00,
2013-07-27 20:26:00,64.0,56.0,30.29,NW,315,0.0,0.0,75,0.00,,,0.01,Rainwise IP-100,2013-07-28 00:26:00,
2013-07-27 20:31:00,64.0,56.0,30.29,NW,315,0.0,0.0,76,0.00,,,0.01,Rainwise IP-100,2013-07-28 00:31:00,
2013-07-27 20:36:00,64.0,56.0,30.29,NW,315,0.0,0.0,76,0.00,,,0.01,Rainwise IP-100,2013-07-28 00:36:00,
2013-07-27 20:41:00,64.0,56.0,30.29,NNW,337,0.0,3.0,76,0.00,,,0.01,Rainwise IP-100,2013-07-28 00:41:00,
2013-07-27 20:46:00,63.0,55.0,30.29,NNW,337,0.0,0.0,75,0.00,,,0.01,Rainwise IP-100,2013-07-28 00:46:00,
2013-07-27 20:51:00,63.0,55.0,30.30,NNW,337,0.0,0.0,75,0.00,,,0.01,Rainwise IP-100,2013-07-28 00:51:00,
2013-07-27 20:56:00,63.0,55.0,30.30,NNW,337,0.0,0.0,75,0.00,,,0.01,Rainwise IP-100,2013-07-28 00:56:00,
2013-07-27 21:01:00,63.0,55.0,30.30,NNW,337,0.0,0.0,75,0.00,,,0.01,Rainwise IP-100,2013-07-28 01:01:00,
2013-07-27 21:06:00,63.0,55.0,30.31,NNW,337,0.0,0.0,75,0.00,,,0.01,Rainwise IP-100,2013-07-28 01:06:00,
2013-07-27 21:11:00,63.0,55.0,30.30,NNW,337,0.0,0.0,75,0.00,,,0.01,Rainwise IP-100,2013-07-28 01:11:00,
2013-07-27 21:16:00,62.0,54.0,30.31,NNW,337,0.0,0.0,75,0.00,,,0.01,Rainwise IP-100,2013-07-28 01:16:00,
2013-07-27 21:21:00,62.0,54.0,30.31,NNW,337,0.0,0.0,75,0.00,,,0.01,Rainwise IP-100,2013-07-28 01:21:00,
2013-07-27 21:26:00,62.0,53.0,30.31,NNW,337,0.0,0.0,74,0.00,,,0.01,Rainwise IP-100,2013-07-28 01:26:00,
2013-07-27 21:31:00,62.0,53.0,30.31,NNW,337,0.0,0.0,74,0.00,,,0.01,Rainwise IP-100,2013-07-28 01:31:00,
2013-07-27 21:36:00,62.0,53.0,30.31,NNW,337,0.0,0.0,74,0.00,,,0.01,Rainwise IP-100,2013-07-28 01:36:00,
2013-07-27 21:41:00,61.0,53.0,30.31,NNW,337,0.0,0.0,74,0.00,,,0.01,Rainwise IP-100,2013-07-28 01:41:00,
2013-07-27 21:46:00,61.0,53.0,30.31,NNW,337,0.0,0.0,74,0.00,,,0.01,Rainwise IP-100,2013-07-28 01:46:00,
2013-07-27 21:51:00,61.0,53.0,30.31,NNW,337,0.0,0.0,74,0.00,,,0.01,Rainwise IP-100,2013-07-28 01:51:00,
2013-07-27 21:56:00,61.0,53.0,30.31,NNW,337,0.0,0.0,74,0.00,,,0.01,Rainwise IP-100,2013-07-28 01:56:00,
2013-07-27 22:01:00,61.0,53.0,30.31,NNW,337,0.0,0.0,74,0.00,,,0.01,Rainwise IP-100,2013-07-28 02:01:00,
2013-07-27 22:06:00,61.0,52.0,30.31,North,360,0.0,0.0,73,0.00,,,0.01,Rainwise IP-100,2013-07-28 02:06:00,
2013-07-27 22:11:00,61.0,52.0,30.31,North,360,0.0,0.0,73,0.00,,,0.01,Rainwise IP-100,2013-07-28 02:11:00,
2013-07-27 22:16:00,61.0,52.0,30.31,North,360,0.0,0.0,73,0.00,,,0.01,Rainwise IP-100,2013-07-28 02:16:00,
2013-07-27 22:21:00,61.0,52.0,30.31,NNW,337,0.0,0.0,73,0.00,,,0.01,Rainwise IP-100,2013-07-28 02:21:00,
2013-07-27 22:26:00,61.0,52.0,30.31,NNW,337,0.0,0.0,72,0.00,,,0.01,Rainwise IP-100,2013-07-28 02:26:00,
2013-07-27 22:31:00,61.0,52.0,30.31,NNW,337,0.0,0.0,72,0.00,,,0.01,Rainwise IP-100,2013-07-28 02:31:00,
2013-07-27 22:36:00,61.0,52.0,30.31,NNW,337,0.0,0.0,72,0.00,,,0.01,Rainwise IP-100,2013-07-28 02:36:00,
2013-07-27 22:41:00,61.0,52.0,30.31,NNW,337,0.0,0.0,72,0.00,,,0.01,Rainwise IP-100,2013-07-28 02:41:00,
2013-07-27 22:46:00,61.0,52.0,30.31,NNW,337,0.0,0.0,72,0.00,,,0.01,Rainwise IP-100,2013-07-28 02:46:00,
2013-07-27 22:51:00,60.0,50.0,30.31,NNW,337,0.0,0.0,72,0.00,,,0.01,Rainwise IP-100,2013-07-28 02:51:00,
2013-07-27 22:56:00,60.0,50.0,30.31,NNW,337,0.0,0.0,72,0.00,,,0.01,Rainwise IP-100,2013-07-28 02:56:00,
2013-07-27 23:01:00,60.0,50.0,30.31,NNW,337,0.0,0.0,72,0.00,,,0.01,Rainwise IP-100,2013-07-28 03:01:00,
2013-07-27 23:06:00,60.0,50.0,30.31,NNW,337,0.0,0.0,72,0.00,,,0.01,Rainwise IP-100,2013-07-28 03:06:00,
2013-07-27 23:11:00,60.0,50.0,30.31,South,180,0.0,0.0,72,0.00,,,0.01,Rainwise IP-100,2013-07-28 03:11:00,
2013-07-27 23:16:00,60.0,50.0,30.31,SSE,157,0.0,0.0,71,0.00,,,0.01,Rainwise IP-100,2013-07-28 03:16:00,
2013-07-27 23:21:00,60.0,50.0,30.31,SSE,157,0.0,0.0,71,0.00,,,0.01,Rainwise IP-100,2013-07-28 03:21:00,
2013-07-27 23:26:00,60.0,50.0,30.31,SSE,157,0.0,0.0,70,0.00,,,0.01,Rainwise IP-100,2013-07-28 03:26:00,
2013-07-27 23:31:00,60.0,50.0,30.31,SSE,157,0.0,0.0,70,0.00,,,0.01,Rainwise IP-100,2013-07-28 03:31:00,
2013-07-27 23:36:00,60.0,50.0,30.31,SSE,157,0.0,0.0,70,0.00,,,0.01,Rainwise IP-100,2013-07-28 03:36:00,
2013-07-27 23:41:00,60.0,50.0,30.31,SSE,157,0.0,0.0,70,0.00,,,0.01,Rainwise IP-100,2013-07-28 03:41:00,
2013-07-27 23:46:00,60.0,50.0,30.31,SSE,157,0.0,0.0,70,0.00,,,0.01,Rainwise IP-100,2013-07-28 03:46:00,
2013-07-27 23:51:00,59.0,49.0,30.31,SSE,157,0.0,0.0,69,0.00,,,0.01,Rainwise IP-100,2013-07-28 03:51:00,
2013-07-27 23:56:00,59.0,49.0,30.31,SSE,157,0.0,0.0,69,0.00,,,0.01,Rainwise IP-100,2013-07-28 03:56:00,